Probability
0 0 0 0 0 0 0 0 0 0 0 1 2 3 3 3 6 13 21 24 26 28 31 35 37 37 35 33 30 26 25 24 25 31 33 30 26 19 11 7 6 7 11 14
0 0 0 0 0 0 0 0 0 0 0 1 2 3 4 5 8 13 19 24 27 29 30 30 30 29 28 28 25 23 23 23 24 28 28 25 21 15 10 7 6 6 7 8
0 0 0 0 0 0 0 0 0 0 0 1 2 3 4 8 10 13 16 20 24 25 24 22 18 16 18 19 18 18 20 23 25 25 23 21 18 13 8 7 6 5 4 4
0 0 0 0 0 0 0 0 0 0 0 0 1 1 4 7 9 10 11 13 16 17 18 16 12 10 12 13 13 14 16 20 23 23 20 18 15 10 7 5 4 4 3 3
0 0 0 0 0 0 0 0 0 0 0 0 0 1 2 4 5 4 5 7 10 12 14 14 12 10 10 11 11 11 12 14 17 18 16 13 9 6 5 4 3 3 2 2
0 0 0 0 0 0 0 0 0 0 0 0 0 0 1 1 2 2 3 5 6 7 10 12 11 10 11 11 10 9 8 9 11 12 10 7 5 4 3 3 2 1 1 1
0 0 0 0 0 0 0 0 0 0 0 0 0 0 0 0 1 2 2 3 3 3 6 9 9 8 9 10 10 8 6 6 7 7 5 3 2 2 2 1 1 0 0 0
0 0 0 0 0 0 0 0 0 0 0 0 0 0 0 0 0 1 1 1 1 2 3 5 5 5 7 8 7 6 5 5 4 3 1 1 1 1 1 0 0 0 0 0
0 0 0 0 0 0 0 0 0 0 0 0 0 0 0 0 0 0 0 1 1 2 3 2 2 3 4 5 5 4 5 4 2 0 0 0 0 0 0 0 0 0 0 0
0 0 0 0 0 0 0 0 0 0 0 0 0 0 0 0 0 0 0 1 2 3 3 2 2 3 3 3 3 3 4 3 1 0 0 0 0 0 0 0 0 0 0 0
0 0 0 0 0 0 0 0 0 0 0 0 0 0 0 0 0 0 0 1 2 2 2 2 2 3 3 3 3 2 2 1 0 0 0 0 0 0 0 0 0 0 0 0
0 0 0 0 0 0 0 0 0 0 0 0 0 0 0 0 0 0 0 0 1 1 1 1 1 2 2 2 1 1 1 0 0 0 0 0 0 0 0 0 0 0 0 0
0 0 0 0 0 0 0 0 0 0 0 0 0 0 0 0 0 0 0 0 0 0 0 0 0 1 1 1 0 0 0 0 0 0 0 0 0 0 0 0 0 0 0 0
0 0 0 0 0 0 0 0 0 0 0 0 0 0 0 0 0 0 0 0 0 0 0 0 0 0 0 0 0 0 0 0 0 0 0 0 0 0 0 0 0 0 0 0
0 0 0 0 0 0 0 0 0 0 0 0 0 0 0 0 0 0 0 0 0 0 0 0 0 0 0 0 0 0 0 0 0 0 0 0 0 0 0 0 0 0 0 0
0 0 0 0 0 0 0 0 0 0 0 0 0 0 0 0 0 0 0 0 0 0 0 0 0 0 0 0 0 0 0 0 0 0 0 0 0 0 0 0 0 0 0 0
0 0 0 0 0 0 0 0 0 0 0 0 0 0 0 0 0 0 0 0 0 0 0 0 0 0 0 0 0 0 0 0 0 0 0 0 0 0 0 0 0 0 0 0
0 0 0 0 0 0 0 0 0 0 0 0 0 0 0 0 0 0 0 0 0 0 0 0 0 0 0 0 0 0 0 0 0 0 0 0 0 0 0 0 0 0 0 0
0 0 0 0 0 0 0 0 0 0 0 0 0 0 0 0 0 0 0 0 0 0 0 0 0 0 0 0 0 0 0 0 0 0 0 0 0 0 0 0 0 0 0 0
0 0 0 0 0 0 0 0 0 0 0 0 0 0 0 0 0 0 0 0 0 0 0 0 0 0 0 0 0 0 0 0 0 0 0 0 0 0 0 0 0 0 0 0
0 0 0 0 0 0 0 0 0 0 0 0 0 0 0 0 0 0 0 0 0 0 0 0 0 0 0 0 0 0 0 0 0 0 0 0 0 0 0 0 0 0 0 0
0 0 0 0 0 0 0 0 0 0 0 0 0 0 0 0 0 0 0 0 0 0 0 0 0 0 0 0 0 0 0 0 0 0 0 0 0 0 0 0 0 0 0 0
0 0 0 0 0 0 0 0 0 0 0 0 0 0 0 0 0 0 0 0 0 0 0 0 0 0 0 0 0 0 0 0 0 0 0 0 0 0 0 0 0 0 0 0
0 0 0 0 0 0 0 0 0 0 0 0 0 0 0 0 0 0 0 0 0 0 0 0 0 0 0 0 0 0 0 0 0 0 0 0 0 0 0 0 0 0 0 0
0 0 0 0 0 0 0 0 0 0 0 0 0 0 0 0 0 0 0 0 0 0 0 0 0 0 0 0 0 0 0 0 0 0 0 0 0 0 0 0 0 0 0 0
0 0 0 0 0 0 0 0 0 0 0 0 0 0 0 0 0 0 0 0 0 0 0 0 0 0 0 0 0 0 0 0 0 0 0 0 0 0 0 0 0 0 0 0
Wind_Speed
2 2 5 9 8 8 6 6 8 9 6 2 2 2 2 3 6 7 7 7 8 8 7 7 7 6 6 5 4 4 2 1 2 3 4 4 4 3 3 2 1 1 2 3
2 7 13 9 8 7 8 7 8 7 5 3 1 1 4 7 7 6 7 6 8 8 8 8 8 7 5 4 3 3 3 2 1 2 3 3 4 3 3 2 2 3 1 1
8 10 7 8 9 8 7 5 5 4 4 4 4 5 4 5 8 9 8 7 8 9 8 7 7 6 6 6 6 4 4 3 0 2 3 4 4 3 2 2 2 3 3 3
8 11 9 9 8 6 6 7 4 2 2 3 2 1 3 2 5 7 8 7 7 7 7 7 6 6 5 5 5 4 3 3 2 2 4 6 5 4 3 3 3 4 4 4
7 5 4 5 7 4 6 5 2 1 1 2 4 2 4 2 3 4 6 7 7 7 7 7 6 5 5 5 4 3 3 4 3 2 3 5 6 5 5 5 6 5 5 6
10 7 5 6 6 4 2 3 6 6 5 2 3 2 3 2 2 2 4 6 7 7 7 7 6 6 7 6 5 4 4 4 4 4 4 5 8 8 8 7 5 5 5 5
8 7 5 3 3 5 3 5 5 6 5 3 2 2 3 1 1 3 5 5 6 6 6 7 7 7 7 7 6 5 6 5 5 5 5 6 8 8 8 7 6 5 5 5
3 6 4 2 3 3 2 7 6 4 4 4 2 2 2 0 3 5 6 7 7 7 6 7 7 7 6 6 6 6 5 5 5 5 6 7 8 7 6 7 6 6 5 5
4 4 3 2 1 3 1 2 6 7 2 1 2 1 2 2 2 3 4 6 7 6 6 7 6 6 6 6 5 4 5 6 6 7 8 9 9 9 9 8 8 6 6 6
5 3 4 3 5 4 3 4 5 4 3 2 3 3 4 5 4 4 4 4 5 5 6 7 6 7 6 6 5 5 6 7 7 7 7 8 9 9 9 8 9 8 7 7
4 3 3 4 1 2 2 2 4 4 5 5 3 5 3 6 6 6 5 4 4 5 6 6 6 6 6 6 6 6 7 8 7 7 8 9 9 9 9 8 8 8 8 7
1 5 0 3 4 2 2 3 5 4 3 3 3 5 1 4 6 7 6 6 6 6 6 6 6 6 6 7 6 7 7 8 7 7 8 9 9 9 9 9 8 8 9 8
2 5 3 6 7 4 1 2 3 5 4 4 4 4 3 6 7 7 7 7 6 6 6 6 6 6 6 6 6 7 7 7 7 8 9 10 9 9 9 8 8 8 9 8
3 4 5 5 6 5 4 4 2 5 4 4 6 6 6 7 8 7 7 7 7 6 6 6 5 5 5 5 5 6 7 7 7 8 9 9 9 8 8 7 8 8 9 9
4 2 2 4 5 3 4 5 3 3 6 7 7 8 10 11 10 9 8 8 8 7 7 6 5 5 5 5 5 6 6 6 6 8 8 8 7 8 8 8 9 9 9 9
3 1 1 4 4 4 4 5 4 1 2 4 6 3 5 10 9 9 9 10 9 8 7 6 6 5 5 5 5 6 6 6 6 7 7 7 8 8 8 8 8 9 9 8
1 2 1 3 5 3 3 3 1 2 2 5 6 7 13 11 11 11 10 10 10 9 8 7 6 5 5 5 6 6 6 6 7 7 7 7 7 8 8 8 8 8 8 8
3 2 2 1 3 2 5 2 3 5 3 3 6 11 13 11 9 7 8 10 10 10 9 8 7 5 4 5 5 5 6 6 7 6 7 6 7 7 7 7 7 6 6 6
6 5 2 1 1 4 3 1 2 4 1 3 11 13 12 13 9 5 6 8 8 9 8 7 6 6 5 5 5 6 6 6 6 6 6 6 6 6 6 6 6 5 5 5
2 4 4 2 1 4 4 2 3 6 2 4 11 14 15 11 7 6 9 9 10 9 8 7 7 7 6 5 5 6 6 6 6 6 5 5 5 6 6 5 5 4 5 5
3 2 2 3 3 5 4 2 2 1 6 8 11 14 13 6 5 10 13 11 10 9 8 8 8 6 6 5 6 7 6 5 5 5 5 5 5 5 5 5 4 5 5 5
2 1 2 2 2 6 4 1 3 5 4 10 10 10 9 9 13 15 14 13 12 10 9 8 7 6 5 5 6 6 5 4 5 5 5 4 3 3 5 5 4 5 6 6
2 3 3 4 6 4 1 2 2 6 9 7 8 10 12 13 14 14 13 12 11 10 8 7 7 6 5 5 6 6 4 4 5 5 5 4 4 4 4 4 5 4 4 4
4 2 1 0 1 1 4 5 5 7 8 9 12 13 14 14 15 14 13 11 10 9 8 7 7 7 5 5 5 5 4 5 6 5 5 5 5 6 6 5 4 4 3 4
5 1 2 1 2 4 4 6 9 11 13 14 12 12 14 17 15 13 11 11 10 8 7 6 7 7 6 5 5 5 5 6 6 5 5 6 6 6 6 6 5 4 2 3
4 5 5 6 7 6 4 6 12 14 13 14 14 12 12 14 14 12 11 9 8 9 7 7 7 6 6 6 5 5 5 6 6 5 5 4 4 4 4 5 5 9 7 7
Wind_Direction
237 111 238 235 215 216 246 272 286 284 296 49 126 218 291 1 71 83 82 84 92 89 75 67 66 71 82 85 97 109 118 143 142 150 149 139 140 131 106 85 63 111 184 182
343 259 243 242 247 242 251 263 275 293 320 38 69 24 32 45 67 81 86 79 82 84 70 62 57 57 57 73 86 97 91 74 66 167 154 133 128 116 109 108 67 63 86 181
222 249 254 245 257 252 258 238 247 269 335 20 65 16 30 36 57 64 64 68 77 83 77 63 61 56 46 44 39 46 61 73 103 158 125 117 111 108 108 111 84 44 48 55
247 256 264 265 256 236 256 255 241 277 30 318 48 314 316 34 54 56 56 61 65 73 77 67 54 52 43 35 37 32 49 81 116 141 148 151 147 141 132 119 101 73 57 62
260 273 282 267 255 237 235 247 261 290 99 13 5 99 289 352 43 52 53 55 54 56 63 64 52 44 35 34 39 22 38 51 71 101 135 139 126 121 118 109 94 76 60 55
263 275 254 242 266 247 237 35 26 40 62 24 299 134 278 320 301 104 72 62 53 50 53 55 48 44 33 27 28 24 46 42 41 74 93 123 129 127 118 107 99 83 68 55
297 295 279 255 291 315 69 76 26 0 9 266 279 128 232 301 340 120 113 85 65 55 56 47 40 38 32 20 21 23 40 40 44 76 95 110 115 115 115 115 106 99 85 71
264 291 290 286 213 216 193 137 158 197 225 266 308 211 240 142 68 91 103 96 77 61 56 52 43 35 30 25 21 27 42 45 51 77 92 96 100 98 97 95 98 95 91 87
220 258 290 309 315 148 128 166 167 144 175 260 279 249 262 167 103 90 88 85 76 66 57 57 48 35 32 31 32 40 52 54 55 72 87 89 91 96 99 96 92 91 91 91
191 266 307 331 36 25 137 148 87 106 150 246 268 236 225 204 202 163 133 110 99 87 70 63 49 38 36 37 39 47 62 69 65 70 84 93 92 94 98 96 95 94 89 86
165 172 319 9 29 290 16 65 109 125 156 166 228 254 231 198 181 165 146 116 101 87 75 67 57 48 42 44 50 59 67 72 71 73 81 88 89 91 93 95 95 94 90 85
137 120 288 286 277 205 165 176 146 147 219 179 187 253 334 150 142 138 131 118 99 86 80 74 66 56 51 47 51 61 67 75 78 81 85 85 85 87 89 89 88 88 87 82
85 97 55 344 339 349 343 236 167 143 140 175 186 240 105 117 119 126 128 122 108 100 89 80 75 67 61 58 59 63 69 74 78 84 88 88 88 87 86 85 86 85 84 81
102 114 154 196 233 257 272 274 225 142 161 201 207 185 167 158 147 140 134 125 116 108 101 92 88 85 78 73 71 72 70 72 79 82 86 87 88 89 88 85 83 82 81 79
80 129 204 238 257 265 276 288 269 210 196 192 201 179 186 173 158 150 143 133 126 121 115 106 101 97 91 89 85 81 77 76 82 84 84 84 85 87 87 84 80 79 79 80
43 108 4 316 305 314 313 317 301 280 151 137 134 156 147 136 132 142 146 143 141 136 129 119 113 109 104 102 101 93 88 84 87 90 89 88 88 87 86 85 84 81 78 77
359 99 58 293 305 345 309 274 245 121 141 155 176 168 142 142 153 159 158 152 149 144 137 130 124 119 114 106 101 99 97 94 92 93 94 90 90 89 87 91 86 85 83 82
175 134 145 282 1 278 257 299 99 100 56 103 117 139 150 144 137 138 149 149 147 145 139 133 129 124 116 109 106 104 100 98 97 95 96 96 94 92 91 91 91 90 91 91
176 159 145 123 288 281 289 297 160 130 77 116 129 134 127 121 108 113 137 140 141 139 137 134 131 125 120 117 115 110 103 99 100 101 98 98 99 98 96 96 98 97 96 92
84 118 130 144 196 250 253 272 128 98 140 159 145 145 145 143 148 165 151 137 132 130 132 130 125 120 120 121 118 112 109 107 108 109 106 102 102 102 101 103 101 96 98 98
9 46 145 182 221 261 261 276 88 185 223 163 157 155 158 168 158 143 140 134 133 132 130 126 123 122 123 120 114 112 110 111 113 107 102 98 98 104 106 101 99 104 100 93
243 200 201 154 197 255 287 85 175 206 138 141 149 153 144 123 120 130 135 136 137 135 131 128 126 123 121 120 116 113 115 119 111 107 104 103 104 110 107 101 99 105 110 106
248 211 196 187 215 249 318 130 131 127 125 131 140 141 132 127 132 134 136 139 139 137 134 130 128 123 119 121 123 121 126 119 112 104 97 90 81 72 84 96 103 101 104 110
285 242 142 37 245 127 91 88 89 110 121 128 134 137 136 133 137 135 138 140 139 137 137 134 133 130 128 126 126 132 128 117 111 104 99 96 88 77 65 65 81 101 113 117
248 224 106 116 152 89 71 102 109 104 110 117 123 131 136 135 138 139 141 143 144 141 138 137 136 134 135 131 129 131 123 112 106 102 99 97 95 94 80 66 55 76 79 160
225 182 170 201 193 152 156 136 124 121 124 128 126 123 130 136 138 137 138 139 139 138 134 133 134 135 135 132 130 128 121 117 114 110 110 111 110 105 102 97 67 43 57 80